ALGARVE GOLDEN RACE 2018 -2. YARIŞ 207 KM

  • Monforte

  • Release Point: Monforte
  • Info: GPS RELEASE PLACE- 207,332 KM
    N- 39.03.23.96
    O- 7.26.31.60

    Pigeons not basketed
    PL-0414-10064
    PT- 8397237
    PL- 0344-7718
    IHU- S 137962
    NL- 1684571
    NL- 3838592
    DV-0777-804
    GR- 1213982

  • Distance: 207.332 km       Release Time: 04.09.2018 08:45:00 (GMT +1:00)
  • basketed Pigeons: 2740     arrived Pigeons: 2609        expected Pigeons: 131
Rank Fancier Team Country Arrival Speed [m/min] Pigeon Name
1 Van Vaizey-A United Kingdom 04.09.2018 11:47:41.64 1134.8594 UK-4753 – Basil
2 H.+D. Koffler + Kossow-B Germany 04.09.2018 11:47:42.23 1134.7983 DE-1078 – Lupinchen
3 Dimitar Todorov -B Bulgaria 04.09.2018 11:47:47.12 1134.2923 BG-332 – DT 24
4 Pigeons Airport- Team-B Romania 04.09.2018 11:47:51.96 1133.792 RO-3931 – Dan
5 KitSune Loft-B Germany 04.09.2018 11:48:25.34 1130.3531 DE-1016 – Kage
6 HokReijnen- Bolton-E Netherlands 04.09.2018 11:48:25.83 1130.3028 NL-2976 – Hok 15
7 Flying Dreams Loft Team-B Germany 04.09.2018 11:48:25.84 1130.3017 DE-1318 – Mixed Ace
8 Norio Onodera-A Japan 04.09.2018 11:48:26.06 1130.2791 JP-2649 – Ono 629
9 Marbin Cortes United States 04.09.2018 11:48:26.33 1130.2514 US-4867 – Cortez 1
10 Ganus Family Loft-I United States 04.09.2018 11:48:26.35 1130.2494 US-4825 – Indiana Jones
11 Mendez & Gallo Loft-A United States 04.09.2018 11:48:26.37 1130.2473 US-4890 – Omnom Chocolate
12 Dennis Veugelers Racing Pigeons Netherlands 04.09.2018 11:48:26.76 1130.2073 NL-2823 – Kwak
13 Henning+Keller+Kornelius-C Germany 04.09.2018 11:48:26.77 1130.2062 DE-908 – Thomas 4
14 Team Leon & D. Todorov Russian Federation 04.09.2018 11:48:27.47 1130.1344 RU-4013 – Leon-DT043
15 Ganus Family Loft-F United States 04.09.2018 11:48:27.48 1130.1333 US-4818 – Morning Do
16 Bussmann, Johannes Germany 04.09.2018 11:48:28.19 1130.0604 DE-643 – Sylt Gabi
17 Fieldton Fighters-B United Kingdom 04.09.2018 11:48:28.27 1130.0522 UK-4379 – Larry
18 Emeralds & Diamonds Dynasty-B Northern Ireland 04.09.2018 11:48:28.44 1130.0348 UK-4365 – Ruby Dynasty
19 Butlert Dobbs Ireland 04.09.2018 11:48:28.96 1129.9814 IE-2301 – Kerry
20 Heribert Gertkaemper Germany 04.09.2018 11:48:29.20 1129.9568 DE-913 – Heribert 1
21 K. Uchiyama Japan 04.09.2018 11:48:29.89 1129.8859 JP-2644 – Uchi 608
22 Denis Culic Costa Rica 04.09.2018 11:48:29.91 1129.8839 HR-2226 – Dubrovnik-Beauty
23 R.Rogers & Son United Kingdom 04.09.2018 11:48:29.93 1129.8818 UK-4636 – Fly Wontfly
24 Sean Lennox Ireland 04.09.2018 11:48:31.81 1129.6889 IE-2525 – Endeavour
25 Al Capones-D Netherlands 04.09.2018 11:48:35.08 1129.3536 NL-2872 – Capones 10
26 Yakup Yilmaz-Ramo-A Turkey 04.09.2018 11:48:35.15 1129.3464 TR-4215 – Belinay
27 Valya & Rosen Dobrevi-A Bulgaria 04.09.2018 11:48:35.24 1129.3372 BG-404 – Mona
28 Schute+Kornelius-B Germany 04.09.2018 11:48:48.78 1127.9507 DE-1242 – Thomas 6
29 Yakup Yilmaz-Ramo-B Turkey 04.09.2018 11:48:53.80 1127.4375 TR-4218 – Ilker
30 Lasterie Brandt-A Germany 04.09.2018 11:49:00.69 1126.7339 DE-1057 – Lasterie 1
31 KitSune Loft-A Germany 04.09.2018 11:49:00.71 1126.7319 DE-1014 – Morishita
32 Fermannach Flyers-F Ireland 04.09.2018 11:49:00.97 1126.7054 IE-2362 – Jamie 16
33 Ivanschitz Clemens-B Austria 04.09.2018 11:49:00.98 1126.7043 AT-14 – Thronfolger
34 Hecher H+L-A Germany 04.09.2018 11:49:01.80 1126.6207 DE-871 – Maxima
35 Die Sontheimer Germany 04.09.2018 11:49:01.98 1126.6023 DE-690 – Hugo
36 Jos Reilly – Team Ireland-I Ireland 04.09.2018 11:49:01.99 1126.6013 IE-2451 – Eagle Eyes
37 Team Anibalpe & M.Jesus-A Spain 04.09.2018 11:49:02.04 1126.5962 ES-2092 – Vicenta
38 Taxi Mush-B Ireland 04.09.2018 11:49:02.52 1126.5472 IE-2578 – Taxi Mush Bobby
39 Team Maxi 99-A Germany 04.09.2018 11:49:02.90 1126.5084 DE-1590 – Maxi 3
40 Alp Race Team-C Switzerland 04.09.2018 11:49:02.91 1126.5074 CH-441 – SKY 19
41 Cozy Yokoyama-B Belgium 04.09.2018 11:49:03.23 1126.4748 BE-86 – Cozy 669
42 Geerimckx L., B. & J.-B Belgium 04.09.2018 11:49:04.10 1126.386 BE-141 – Geerimckx 6
43 Derby Sevilla-A Spain 04.09.2018 11:49:04.11 1126.385 ES-1922 – Sevilla 2
44 HokReijnen- Bolton-I Netherlands 04.09.2018 11:49:05.99 1126.1933 NL-4907 HOK 25
45 Team Rising Sun-A Germany 04.09.2018 11:49:06.18 1126.1739 DE-1614 – Harmonie
46 Big Andys Loft-A United States 04.09.2018 11:49:06.75 1126.1158 US-4786 – Big 1
47 James Ward-B United States 04.09.2018 11:49:08.61 1125.9262 US-4846 – Ward 4
48 Billy Mill Boys United Kingdom 04.09.2018 11:50:37.93 1116.8969 UK-4285 – Bobs Choice
49 ZG Helios Yu Tao & Hubner & Gehrken-D China 04.09.2018 11:51:31.13 1111.5875 DE-1856 – Hub 43
50 GoonSquad-F Belgium 04.09.2018 11:51:32.70 1111.4316 BE-159 – Edmilson
51 Team Steppenwolf Germany 04.09.2018 11:51:33.40 1111.3621 DE-1679 – Jim Koopf
52 Team Irish Murphy-A Ireland 04.09.2018 11:51:34.20 1111.2826 IE-2533 – Albie
53 Coleman & Lawson-C United Kingdom 04.09.2018 11:51:34.62 1111.2409 UK-4316 – Euro-Fighter
54 Florin Derby Corabia-B Romania 04.09.2018 11:51:35.99 1111.105 RO-3890 – Florin 5
55 The Three Musketeers-A Ireland 04.09.2018 11:51:37.60 1110.9452 IE-2547 – Musketeer 3
56 Julio C. Ramirez United States 04.09.2018 11:51:39.22 1110.7845 US-4855 – Million Dollar Girl
57 EPW Eddy-Qian Gang-C Belgium 04.09.2018 11:51:39.71 1110.7359 BE-122 – EPW 8
58 Ganus Family Loft-A United States 04.09.2018 11:52:19.79 1106.7751 US-4801 – Batman
59 Wolfram Coesfeld-A Germany 04.09.2018 11:52:22.97 1106.4621 DE-1739 – Halvar
60 Las Vladimir & Dana-A Slovakia (Slovak Republic) 04.09.2018 11:52:27.79 1105.9879 SK-4058 – Tomas
61 Bert Berends Netherlands 04.09.2018 11:52:30.39 1105.7323 NL-2739 – BB 3
62 Moore Evans-B United Kingdom 04.09.2018 11:52:30.71 1105.7009 UK-4539 – Jeff
63 Ivanschitz Clemens-A Austria 04.09.2018 11:52:34.17 1105.3609 AT-12 – Maria Johanna
64 Team Tryppehna-A Germany 04.09.2018 11:52:40.50 1104.7396 DE-1690 – Hanna
65 Team “Ladies” Germany 04.09.2018 11:52:41.21 1104.6699 DE-1352 – Petra
66 Team Deichkinder-A Germany 04.09.2018 11:52:41.86 1104.6062 DE-1393 – Kinder 1
67 Albert Nijman-C Netherlands 04.09.2018 11:52:43.54 1104.4414 NL-2682 – Albert 9
68 Team Aviators Loft-A France 04.09.2018 11:52:44.08 1104.3885 FR-2193 – Aviator Three
69 Vicont & Vicontesa-C Bulgaria 04.09.2018 11:52:44.10 1104.3865 BG-423 – Vicont 9
70 Andreas Moeller-D Germany 04.09.2018 11:52:44.32 1104.3649 DE-596 – Julian
71 Merry Christmas Syndicate-B United Kingdom 04.09.2018 11:52:44.78 1104.3198 UK-4521 – Derbyshire Rose
72 Blazevic Costa Rica 04.09.2018 11:52:46.37 1104.164 HR-2222 – Victoria
73 Skeutje Bij Netherlands 04.09.2018 11:52:46.56 1104.1454 NL-3147 – Shops
74 Team Tilli 28 Germany 04.09.2018 11:52:46.90 1104.112 DE-1687 – Black-Raki
75 Sean Donnelly Ireland 04.09.2018 11:52:47.29 1104.0738 IE-2523 – Teofilo
76 Bet Right Lofts-B United Kingdom 04.09.2018 11:52:47.54 1104.0493 UK-4281 – Douro
77 Fermannach Flyers-I Ireland 04.09.2018 11:52:47.54 1104.0493 IE-2371 – Drew 1
78 Helios Bucher Thaqi Switzerland 04.09.2018 11:52:48.35 1103.97 DE-890 – Thaqi 99
79 Team Ruhr Schreiber-A Germany 04.09.2018 11:52:48.48 1103.9572 DE-1621 – Boateng
80 Claudia Schwarm-B Germany 04.09.2018 11:52:48.81 1103.9249 DE-672 – Ran Jan
81 SG Steffl-A Germany 04.09.2018 11:52:49.47 1103.8603 DE-1292 – Wendy
82 Josef Lambriguer-A Switzerland 04.09.2018 11:52:50.70 1103.7398 CH-446 – Werner
83 Andrzej Grodny Poland 04.09.2018 11:52:50.71 1103.7388 PL-3412 – Wera
84 Zollverein Germany 04.09.2018 11:52:53.88 1103.4285 DE-1868 – Doris
85 Hecher H+L-A Germany 04.09.2018 11:52:53.97 1103.4196 DE-872 – Maximator
86 Los Viejos De Isas Spain 04.09.2018 11:52:54.39 1103.3785 ES-1918 – Martin
87 Jones+Douthwaite+Rogers-C United Kingdom 04.09.2018 11:52:54.64 1103.3541 UK-4476 – Storm
88 Sean Donnelly Ireland 04.09.2018 11:52:56.49 1103.1731 IE-2522 – Sean
89 Rien van Oss en Zn-A Netherlands 04.09.2018 11:52:57.85 1103.04 NL-3107 – Lazy
90 Team Varik Netherlands 04.09.2018 11:52:58.57 1102.9696 NL-3289 – Algarve 1
91 Alois Fasselt Germany 04.09.2018 11:52:59.60 1102.8689 DE-571 – Liane
92 Pat Maher Ireland 04.09.2018 11:52:59.76 1102.8533 IE-2497 – Octo Pussy
93 Gareth Williams United Kingdom 04.09.2018 11:53:00.44 1102.7868 UK-4406 – Cyclone
94 Georg Oswald-A Germany 04.09.2018 11:53:03.74 1102.4643 DE-798 – Guardiola
95 Silvercreek Canada 04.09.2018 11:53:11.37 1101.7193 CA-431 – Silver 2
96 Andy Quirke Ireland 04.09.2018 11:53:14.92 1101.373 IE-2277 – Napoleon
97 Henning+Keller+Kornelius-B Germany 04.09.2018 11:53:14.93 1101.372 DE-904 – Germany First
98 Laro Erwin-D Italy 04.09.2018 11:53:16.93 1101.177 IT-2608 – Ervin 10
99 Team Magic-A Germany 04.09.2018 11:53:16.94 1101.1761 DE-1575 – Taifuu
100 Schute+Kornelius-B Germany 04.09.2018 11:53:17.28 1101.1429 DE-1240 – Thomas 1
101 Pipa Elite Center-G Belgium 04.09.2018 11:53:17.75 1101.0971 BE-245 – Elite 64
102 Team Gouden Duif-Algarve-Theo Germany 04.09.2018 11:53:18.03 1101.0698 DE-1459 – Klaus
103 Brzy Team-A Slovakia (Slovak Republic) 04.09.2018 11:53:18.56 1101.0182 SK-4022 – Mag 2
104 Jager + Sohn-A Germany 04.09.2018 11:53:18.91 1100.9841 DE-946 – Maxi 2
105 Team Tijl-B Netherlands 04.09.2018 11:53:19.89 1100.8886 NL-3249 – Zwaluw
106 Reinhold Schueler Germany 04.09.2018 11:53:19.90 1100.8876 DE-1191 – Schochen
107 Simonsz-Wierstra-F Netherlands 04.09.2018 11:53:20.32 1100.8467 NL-2950 – Pluis
108 Van Landschoot Robert-C Belgium 04.09.2018 11:53:21.07 1100.7736 BE-308 – Mauro
109 Al Capones-B Netherlands 04.09.2018 11:53:21.08 1100.7727 NL-2868 – Capones 6
110 Alan Richardson United Kingdom 04.09.2018 11:53:21.38 1100.7434 UK-4223 – Millie Anne
111 Errol Frynn-A Ireland 04.09.2018 11:53:22.77 1100.6081 IE-2341 – Sky Fall
112 Krajcik Andrea & Daniel-C Slovakia (Slovak Republic) 04.09.2018 11:53:22.78 1100.6071 SK-4056 – Rigoletto
113 Vicont & Vicontesa-C Bulgaria 04.09.2018 11:53:26.80 1100.2158 BG-421 – Vicont 7
114 Hugh Egan Ireland 04.09.2018 11:53:28.49 1100.0514 IE-2399 – Egan 2
115 Cozy Yokoyama-C Belgium 04.09.2018 11:53:30.93 1099.8141 BE-90 – Cozy 660
116 Anthony Kavanagh Ireland 04.09.2018 11:53:34.64 1099.4535 IE-2279 – Kaci Coo
117 Comboys & Indian United Kingdom 04.09.2018 11:53:37.56 1099.1698 UK-4322 – Running Bear
118 SuperPloni Germany 04.09.2018 11:53:43.81 1098.5631 DE-1333 – Antonia
119 Dr. de Weerd Pigeons-E Netherlands 04.09.2018 11:53:55.88 1097.3934 NL-2845 – Weerd 13
120 Johannes Rimmele-A Germany 04.09.2018 11:54:17.17 1095.3363 DE-959 – Uschi
121 Meinolf Bueser-A Germany 04.09.2018 11:54:40.65 1093.0764 DE-1106 – Buser 2
122 Bosmans-Leekens Belgium 04.09.2018 11:54:48.96 1092.2788 BE-59 – LEE2
123 Simonsz-Wierstra-A Netherlands 04.09.2018 11:54:55.82 1091.6213 NL-2936 – Timo Martin
124 Lippe-Rheinair-A Germany 04.09.2018 11:55:11.34 1090.1367 DE-1070 – Hellflyer
125 Welters & Pohl Germany 04.09.2018 11:55:17.62 1089.537 DE-1810 – The Special One
126 Team Wonderful-C Germany 04.09.2018 11:56:09.53 1084.6059 DE-1752 – Gerhard
127 HokReijnen- Bolton-B Netherlands 04.09.2018 11:56:20.08 1083.6092 NL-2965 – Hok 4
128 Team Florea Sorin-M Romania 04.09.2018 11:56:21.38 1083.4865 RO-3977 – Cnidus
129 Team Schilling/Rycombel Germany 04.09.2018 11:56:27.15 1082.9422 DE-1490 – Doktov
130 T.E.Breeding Lofts Heinzinger-D Germany 04.09.2018 11:56:32.70 1082.4193 DE-1346 – Blockbuster 2576
131 H L Krueger-A Germany 04.09.2018 11:56:45.53 1081.2123 DE-817 – Blue 163-3
132 Team-Sylt-2000 “H” – Wolvers Germany 04.09.2018 11:56:47.07 1081.0676 DE-1783 – Sylt Ton 4
133 Werner, Horst Germany 04.09.2018 11:56:47.45 1081.0319 DE-1813 – Sylt Farida
134 Dietz Josef+Michael-A Germany 04.09.2018 11:56:47.81 1080.998 DE-691 – Dietz 1
135 Ganus Family Loft-G United States 04.09.2018 11:56:48.54 1080.9295 US-4819 – Red Dragon
136 Manuel Bailen Cañizares Spain 04.09.2018 11:56:48.84 1080.9013 ES-1989 – Bailen 55
137 Emeralds & Diamonds Dynasty-A Northern Ireland 04.09.2018 11:56:49.25 1080.8628 UK-4360 – Onxy Dynasty
138 Team Joeperella-B Netherlands 04.09.2018 11:56:52.34 1080.5727 NL-3206 – Ass
139 Parra Team Netherlands 04.09.2018 11:57:25.55 1077.4645 NL-3078 – Toos
140 Van Boxmeer & Hoevenaars-A Netherlands 04.09.2018 11:57:25.57 1077.4626 NL-3308 – Gueta
141 Team Columbi Gantier Leclercq Belgium 04.09.2018 11:57:26.25 1077.3992 BE-267 – Why Not
142 Carrick Jones & Turner-A United Kingdom 04.09.2018 11:57:26.41 1077.3842 UK-4748 – Drum Major
143 Team Schilling/Rycombel Germany 04.09.2018 11:57:27.85 1077.2499 DE-1489 – Gill
144 Merry Christmas Syndicate-B United Kingdom 04.09.2018 11:57:29.93 1077.0559 UK-4520 – Alfie
145 Sé Thugs Portugal 04.09.2018 11:57:32.74 1076.7939 PT-3770 – Macaco
146 Wegrestaurant Napoleon-C Netherlands 04.09.2018 11:57:33.52 1076.7212 NL-3353 – Drankneus
147 Plymouth Rebels-B United Kingdom 04.09.2018 11:57:37.09 1076.3886 UK-4614 – Swilly Neve
148 Hanus Vasile-A Romania 04.09.2018 11:57:38.63 1076.2452 RO-3894 – Vasile 3
149 Loureiro & Filhos-B Portugal 04.09.2018 11:57:38.98 1076.2126 PT-3708 – Loureiro 3
150 Moran & Bowden-B Ireland 04.09.2018 11:57:38.99 1076.2117 IE-2481 – Lady Rabecca
151 Team Tijl-C Netherlands 04.09.2018 11:57:40.62 1076.0599 NL-3250 – Corrie
152 Jager + Sohn-B Germany 04.09.2018 11:57:45.66 1075.591 DE-951 – Ribery
153 Kolvenbag & Son United States 04.09.2018 11:57:48.30 1075.3456 US-4864 – Sgt Pepper
154 Donnelly & Kirkwood-A Ireland 04.09.2018 11:57:52.41 1074.9636 IE-2320 – No Looking Behind
155 Kolvenbag & Son United States 04.09.2018 11:57:53.40 1074.8717 US-4865 – El Conquistador
156 Miroslav Vidhold Pigeons-B Slovakia (Slovak Republic) 04.09.2018 11:57:54.08 1074.8085 SK-4080 – Spider 504
157 Helmut Schulz-A Germany 04.09.2018 11:57:54.09 1074.8076 DE-892 – Zeuz Jr.
158 Crowley & Green Portugal 04.09.2018 11:57:55.01 1074.7222 PT-3635 – Aintree
159 Team Soepboer-A Netherlands 04.09.2018 11:57:55.69 1074.659 NL-3235 – Ellia
160 Team Soepboer-C Netherlands 04.09.2018 11:57:57.70 1074.4725 NL-3242 – Flipper
161 Dobrowsky, Volker-A Germany 04.09.2018 11:57:58.40 1074.4075 DE-697 – Charleen 1
162 Milo Team Slovakia (Slovak Republic) 04.09.2018 11:57:58.52 1074.3964 SK-4070 – Gulka
163 Team “Ladies” Germany 04.09.2018 11:57:59.24 1074.3296 DE-1351 – Cora
164 Team Brochterbecker-A Germany 04.09.2018 11:58:00.20 1074.2405 DE-1385 – Lissy
165 Team Rising Sun-B Germany 04.09.2018 11:58:00.37 1074.2247 DE-1617 – Sun 3
166 Paul Bamford-A United Kingdom 04.09.2018 11:58:04.73 1073.8205 UK-4582 – Bamford 1
167 Edip Shaban-C Bulgaria 04.09.2018 11:58:05.48 1073.7509 BG-345 – Edip 30
168 Dekker Brothers-B Netherlands 04.09.2018 11:58:05.69 1073.7315 NL-2817 – Eyk Pont
169 Team-Sylt-2000 “G” – Wolvers Germany 04.09.2018 11:58:07.24 1073.5878 DE-1781 – Sylt Ton 2
170 H.+D. Koffler + Kossow-B Germany 04.09.2018 11:58:07.99 1073.5184 DE-1080 – Halunke
171 ZG Helios Yu Tao & Hubner & Gehrken-B China 04.09.2018 11:58:08.34 1073.4859 DE-1851 – Yu 79
172 Klaus & Christian Stretz Germany 04.09.2018 11:58:08.95 1073.4294 DE-1020 – Cptain Spider Man
173 Ernst Radke Germany 04.09.2018 11:58:09.70 1073.36 DE-731 – Sabine
174 Bert Ploeg Netherlands 04.09.2018 11:58:10.69 1073.2683 NL-2740 – Bert 1
175 Let´s Be Ready-A United Kingdom 04.09.2018 11:58:11.25 1073.2164 UK-4505 – Trap 2
176 Parade Superstars-C United Kingdom 04.09.2018 11:58:11.44 1073.1988 UK-4577 – Jimic
177 Hermann Niesing Germany 04.09.2018 11:58:11.92 1073.1544 DE-916 – Jens 5
178 Laro Erwin-A Italy 04.09.2018 11:58:12.15 1073.1331 IT-2599 – Ervin 1
179 James Ward-B United States 04.09.2018 11:58:12.16 1073.1322 US-4848 – Ward 6
180 Hullbride Racing Syndicate-J United Kingdom 04.09.2018 11:58:12.40 1073.11 UK-4449 – Big Girl
181 Welkom Uden Team -C Netherlands 04.09.2018 11:58:12.41 1073.109 NL-3364 – Roel
182 Hullbride Racing Syndicate-L United Kingdom 04.09.2018 11:58:12.86 1073.0674 UK-4455 – Bonnyrigg
183 Team Heidjer 2015-D Germany 04.09.2018 11:58:13.13 1073.0424 DE-1484 – Clarissa
184 Moore Bateman Llewelyn-A United Kingdom 04.09.2018 11:58:13.36 1073.0211 UK-4530 – Tasha
185 Hans Paul Esser-D Germany 04.09.2018 11:58:13.37 1073.0202 DE-844 – Paul 4
186 HokReijnen- Bolton-H Netherlands 04.09.2018 11:58:13.82 1072.9785 NL-3813829
187 Merry Christmas Syndicate-A United Kingdom 04.09.2018 11:58:14.34 1072.9304 UK-4517 – Swansea Jacks
188 Parade Superstars-C United Kingdom 04.09.2018 11:58:14.34 1072.9304 UK-4578 – Tony
189 Fieldton Fighters-B United Kingdom 04.09.2018 11:58:14.37 1072.9276 UK-4380 – Moe
190 Steve Furlonge-B United States 04.09.2018 11:58:14.38 1072.9267 US-4876 – Steve 4
191 Kupka-Smilowski-A Poland 04.09.2018 11:58:14.39 1072.9258 PL-3445 – Benzema
192 Frank & George Bristow United Kingdom 04.09.2018 11:58:14.40 1072.9249 UK-4390 – Stan
193 Team Helios, Bucher + Gehrken -B Switzerland 04.09.2018 11:58:14.67 1072.8999 DE-1500 – Helios 31
194 Radoslav Hristov Bulgaria 04.09.2018 11:58:14.69 1072.898 BG-369 – Mark
195 Loureiro & Filhos-B Portugal 04.09.2018 11:58:15.17 1072.8536 PT-3706 – Loureiro 1
196 Mendez & Gallo Loft-A United States 04.09.2018 11:58:15.18 1072.8527 US-4889 – Wellington Chocolate
197 Team Brauner Germany 04.09.2018 11:58:15.21 1072.8499 DE-1379 – Finia
198 Team Bucher+Wolf Switzerland 04.09.2018 11:58:15.50 1072.8231 CH-488 – Wolf 2
199 A.J. Huijgens-B Netherlands 04.09.2018 11:58:15.51 1072.8222 NL-2667 – Willehe
200 Team Pouw Netherlands 04.09.2018 11:58:16.98 1072.6862 NL-3228 – Nick
201 Rolf Berger-A Germany 04.09.2018 11:58:17.38 1072.6492 DE-1206 – Please Peace
202 Hullbride Racing Syndicate-H United Kingdom 04.09.2018 11:58:18.12 1072.5807 UK-4441 – Mark o Pirlo
203 Meik Hobelmann Germany 04.09.2018 11:58:18.32 1072.5622 DE-1102 – Eleanor
204 Jos Reilly – Team Ireland-I Ireland 04.09.2018 11:58:19.05 1072.4947 IE-2449 – Legs 11
205 Coleman & Lawson-A United Kingdom 04.09.2018 11:58:19.48 1072.455 UK-4310 – Jack Sparrow
206 Team Helios, Bucher + Gehrken -A Swaziland 04.09.2018 11:58:20.28 1072.381 DE-1497 – Bucher 66
207 Johannes Rimmele-A Germany 04.09.2018 11:58:20.45 1072.3653 DE-958 – Lieglinde
208 Ken Darlington-D United Kingdom 04.09.2018 11:58:21.02 1072.3126 UK-4486 – Supreme Power
209 Coleman & Lawson-A United Kingdom 04.09.2018 11:58:21.39 1072.2784 UK-4311 – Vaco
210 Comb. Mantel-A Netherlands 04.09.2018 11:58:21.65 1072.2544 NL-2795 – Tango
211 Team Irish Murphy-C Ireland 04.09.2018 11:58:24.02 1072.0354 IE-2540 – Eats
212 Harald Below-B Germany 04.09.2018 11:58:25.14 1071.9319 DE-862 – Fourty Six
213 Team Spirit-Sattler-Hueller-B Germany 04.09.2018 11:58:25.93 1071.859 DE-1279 – Elke
214 Jos Reilly – Team Ireland-H Ireland 04.09.2018 11:58:26.07 1071.846 IE-2448 – My Boy
215 Antonio Rodrigues Portugal 04.09.2018 11:58:26.08 1071.8451 PT-3601 – Perre 56
216 The Lever Syndicate-A United Kingdom 04.09.2018 11:58:26.92 1071.7675 UK-4732 – Superma King
217 Paco Carranza Spain 04.09.2018 11:58:29.63 1071.5174 ES-2029 – Messi
218 Team Schulz-B Germany 04.09.2018 11:58:30.29 1071.4564 DE-1664 – Rocky
219 Van Breugel-Voorjans-B Netherlands 04.09.2018 11:58:38.52 1070.6975 NL-3318 – Moorland 3
220 Ben de Keijzer-C Netherlands 04.09.2018 11:58:42.69 1070.3133 NL-2727 – Keijzer 9
221 Let´s Be Ready-C United Kingdom 04.09.2018 11:58:50.97 1069.5514 UK-4511 – Miss Reading
222 Walter Straif-B Austria 04.09.2018 11:59:10.64 1067.7456 AT-30 – Blitz
223 Comb. Mantel-C Netherlands 04.09.2018 11:59:11.95 1067.6256 NL-2801 – Ginella
224 Fell Ehlen -A Germany 04.09.2018 11:59:12.20 1067.6027 DE-751 – Felix
225 Europa Master Pigeons OLR Romania 04.09.2018 11:59:13.63 1067.4717 RO-3883 – OLR 1
226 Jos Reilly – Team Ireland-B Ireland 04.09.2018 11:59:14.56 1067.3865 IE-2430 – Aoibhes Girl
227 C. Furlmeier- Mira Germany 04.09.2018 11:59:15.24 1067.3242 DE-653 – Moni
228 Common View Lofts-A United Kingdom 04.09.2018 11:59:15.92 1067.262 UK-4325 – Cooper 2
229 Brockamp Racing Team-C Germany 04.09.2018 11:59:15.93 1067.261 DE-639 – Bloom
230 Die Zwei-B Germany 04.09.2018 11:59:16.28 1067.229 DE-663 – Muller 6
231 Team Schnellin Germany 04.09.2018 11:59:17.53 1067.1146 DE-1654 – Bell´s
232 Bogdan Michalak Poland 04.09.2018 11:59:18.23 1067.0505 PL-3424 – Leszczynka
233 6 Pigeon Friends-A Portugal 04.09.2018 11:59:18.98 1066.9818 PT-3567 – Friend 8
234 Sé Thugs Portugal 04.09.2018 11:59:20.68 1066.8263 PT-3769 – Mico
235 Vasilis Pislinas Greece 04.09.2018 11:59:45.18 1064.5895 GR-2218 – Evita
236 Team Europa-B Poland 04.09.2018 11:59:52.43 1063.9294 PL-3436 – Lewandowski
237 John Kenny Ireland 04.09.2018 11:59:53.90 1063.7957 IE-2412 – Storm Emmett
238 Albert Mylof Netherlands 04.09.2018 11:59:54.67 1063.7256 NL-2671 – Storm
239 K.V.Nood Netherlands 04.09.2018 11:59:55.72 1063.6301 NL-3010 – Stef
240 Sean Donnelly Ireland 04.09.2018 12:00:01.23 1063.1293 IE-2521 – Cece
241 Ken Darlington-D United Kingdom 04.09.2018 12:00:08.08 1062.5073 UK-4487 – Supreme Razor Sharp
242 Sussex Syndicate United Kingdom 04.09.2018 12:00:20.96 1061.3397 UK-4657 – William The Ist
243 Tim Macken-B United States 04.09.2018 12:00:21.08 1061.3288 US-4883 – Tim 373
244 Alp Race Team-D Switzerland 04.09.2018 12:00:21.66 1061.2763 CH-442 – SKY 24
245 Maistorf Germany 04.09.2018 12:00:21.78 1061.2654 DE-1083 – B2Bomber
246 Owen & Hogarth-A United Kingdom 04.09.2018 12:00:23.76 1061.0862 UK-4564 – Ken
247 APC Loft-A United States 04.09.2018 12:00:23.77 1061.0853 US-4782 – APC 3
248 Team BePeJo Germany 04.09.2018 12:00:23.95 1061.069 DE-1373 – Adi
249 Team Seb & Hugo Belgium 04.09.2018 12:00:25.34 1060.9432 BE-292 – Tour
250 Maksim Kumanov-A Bulgaria 04.09.2018 12:00:26.47 1060.841 BG-362 – Maximus 46
251 De Winter Germany 04.09.2018 12:00:33.98 1060.162 DE-680 – Maxim
252 Team Erftaue Germany 04.09.2018 12:00:40.40 1059.5823 DE-1410 – Der Otto
253 Team-Sylt-2000 “E” – Makowski Germany 04.09.2018 12:00:40.67 1059.5579 DE-1776 – Sylt Konstantinchen
254 ISO-Air-A Netherlands 04.09.2018 12:00:42.90 1059.3567 NL-2984 – Kim
255 Dietz Josef+Michael-A Germany 04.09.2018 12:00:44.13 1059.2458 DE-693 – Dietz 3
256 Parra Team Netherlands 04.09.2018 12:00:44.74 1059.1908 NL-3077 – Douche
257 Familie Joekel-C Germany 04.09.2018 12:00:44.88 1059.1781 DE-742 – Super Grobi
258 Karlheinz Wichert-B Germany 04.09.2018 12:00:45.50 1059.1222 DE-1001 – Fortuna
259 SuperPloni Germany 04.09.2018 12:00:46.91 1058.9951 DE-1335 – Tom
260 J. Loos Netherlands 04.09.2018 12:00:48.12 1058.886 NL-2993 – Loos 2
261 Fermannach Flyers-H Ireland 04.09.2018 12:00:48.13 1058.8851 IE-2370 – Jamie 24
262 SG Steffl-D Germany 04.09.2018 12:00:48.47 1058.8545 DE-1302 – Knolle
263 Sothern Flyers-A United Kingdom 04.09.2018 12:00:48.57 1058.8455 UK-4653 – Lower
264 Markus Wirth-B Germany 04.09.2018 12:00:49.28 1058.7815 DE-1097 – Isa
265 Bakker-A Netherlands 04.09.2018 12:00:49.48 1058.7635 NL-2715 – Sophie
266 Gunter Gotz-B Germany 04.09.2018 12:00:50.03 1058.7139 DE-813 – James
267 Rien van Oss en Zn-F Netherlands 04.09.2018 12:00:50.23 1058.6959 NL-3121 – Gabber
268 Fieldton Fighters-A United Kingdom 04.09.2018 12:00:50.25 1058.6941 UK-4377 – Durable
269 Albert Nijman-D Netherlands 04.09.2018 12:00:51.04 1058.6229 NL-2685 – Lucy
270 Wiefler, Alois Austria 04.09.2018 12:00:51.05 1058.622 AT-33 – Helios Two
271 Peixoto e Americo Switzerland 04.09.2018 12:00:51.08 1058.6193 CH-480 – Peixoto 3
272 Andreas Moeller-C Germany 04.09.2018 12:00:51.48 1058.5833 DE-592 – Fynn
273 East Coast Flyers-C Ireland 04.09.2018 12:00:51.58 1058.5743 IE-2339 – Kenners Girl
274 Daniel Hocking United Kingdom 04.09.2018 12:00:51.84 1058.5508 UK-4339 – Hocking 1
275 Team Magic-C Germany 04.09.2018 12:00:51.86 1058.549 DE-1581 – Magic 7
276 Geerimckx L., B. & J.-A Belgium 04.09.2018 12:00:52.20 1058.5184 BE-137 – Geerimckx 2
277 Sporting Pigeon Team-D Portugal 04.09.2018 12:00:52.50 1058.4914 PT-3789 – Sporting 12
278 Team Ruhr Thielen-C Germany 04.09.2018 12:00:52.91 1058.4545 DE-1634 – Zollverein 32
279 Team Soehne Dr. Mildner Germany 04.09.2018 12:00:53.91 1058.3644 DE-1671 – Marius 379
280 Team Maxi 99-A Germany 04.09.2018 12:00:53.94 1058.3617 DE-1589 – Maxi 2
281 Laro Erwin-E Italy 04.09.2018 12:00:54.88 1058.2771 IT-2612 – Ervin 14
282 Fermannach Flyers-E Ireland 04.09.2018 12:00:57.51 1058.0404 IE-2360 – Jamie 14
283 Die Sontheimer Germany 04.09.2018 12:00:58.94 1057.9117 DE-688 – Nixling
284 Peter Janssen-Rien Weijers-B Netherlands 04.09.2018 12:00:59.85 1057.8298 NL-3082 – Inje
285 Team Wonderful-B Germany 04.09.2018 12:00:59.85 1057.8298 DE-1749 – Karl-Heinz
286 Ivanschitz Clemens-A Austria 04.09.2018 12:01:01.93 1057.6428 AT-10 – Marco Polo
287 Gebr Vieberink-B Netherlands 04.09.2018 12:01:02.41 1057.5996 NL-2912 – Papada Two
288 Die Sontheimer Germany 04.09.2018 12:01:04.03 1057.454 DE-689 – Torre
289 Familie Joekel-D Germany 04.09.2018 12:01:06.56 1057.2266 DE-747 – Finchen
290 Alfons & Helmut Klaas-D Germany 04.09.2018 12:01:07.06 1057.1817 DE-565 – Klaas 10
291 Karl-Heinz Koch-A Germany 04.09.2018 12:01:07.79 1057.1161 DE-984 – Movitor
292 Jansienes Pieter Karst Portugal 04.09.2018 12:01:10.50 1056.8727 PT-3684 – Ilona
293 Jacinto Fialho-B Portugal 04.09.2018 12:01:13.74 1056.5819 PT-3679 – Fialho 4
294 Meinolf Bueser-B Germany 04.09.2018 12:01:36.42 1054.5504 DE-1110 – Buser 6
295 Hubert Pfoh + Eichert-B Germany 04.09.2018 12:01:39.71 1054.2564 DE-927 – Alarich
296 Boerdeteam-B Germany 04.09.2018 12:01:47.02 1053.6037 DE-624 – Borde 3
297 Woodhouse Boys-B United Kingdom 04.09.2018 12:01:48.43 1053.4779 UK-4246 – Eva
298 Jones+Douthwaite+Rogers-B United Kingdom 04.09.2018 12:01:49.72 1053.3628 UK-4473 – Cockney
299 Racing Team Illusion Germany 04.09.2018 12:01:51.26 1053.2255 DE-1163 – Sylt Heun
300 Pipa Elite Center-D Belgium 04.09.2018 12:01:52.06 1053.1541 BE-237 – Elite 20
301 Michelsbergbomber Germany 04.09.2018 12:01:53.96 1052.9848 DE-1120 – Tabaluga
302 Antonio Santos Mourinho-A Portugal 04.09.2018 12:01:58.55 1052.5758 PT-3604 – Mourinho 1
303 Abel Rodrigues Portugal 04.09.2018 12:02:06.21 1051.8941 PT-3578 – Abel 2
304 Ferhat Gulez-B Turkey 04.09.2018 12:02:12.42 1051.342 TR-4147 – Star
305 Happy Bélgium Pigéon Team-D Belgium 04.09.2018 12:02:15.45 1051.0728 BE-173 – Happy 11
306 Cees van Gelder-A Netherlands 04.09.2018 12:02:15.83 1051.0391 NL-2774 – Rosa
307 Ines, Beatriz y Santiago Portugal 04.09.2018 12:02:19.62 1050.7026 PT-3685 – Morais 1
308 Johnson Bros-B Ireland 04.09.2018 12:02:20.06 1050.6636 IE-2423 – Blue 14
309 The 3 Musketiers-A Netherlands 04.09.2018 12:02:20.39 1050.6343 NL-3293 – Golden 939
310 Sorin Dudu United Kingdom 04.09.2018 12:02:22.55 1050.4427 UK-4648 – Gaby 088
311 Bet Right Lofts-A United Kingdom 04.09.2018 12:02:25.93 1050.143 UK-4278 – Cuff Bam
312 Hullbride Racing Syndicate-L United Kingdom 04.09.2018 12:02:30.62 1049.7274 UK-4453 – Monsmeg
313 Leinster Premier Club-A Ireland 04.09.2018 12:02:31.89 1049.6149 IE-2465 – Massies Girl
314 The Toffees-A United Kingdom 04.09.2018 12:02:32.15 1049.5918 UK-4459 – Beckenbauer
315 Antonio Ramos Portugal 04.09.2018 12:02:32.16 1049.591 PT-3600 – Ramos 64
316 Ganus Family Loft-C United States 04.09.2018 12:02:32.18 1049.5892 US-4808 – Magic Mike
317 Team Werne-A Germany 04.09.2018 12:02:33.45 1049.4767 DE-1724 – Werne 2
318 Hok Jos Vercammen-A Belgium 04.09.2018 12:02:33.72 1049.4528 BE-181 – Messi 1
319 Peter Keogh-A United Kingdom 04.09.2018 12:02:33.73 1049.4519 UK-4591 – Nichola 2
320 Tandem, Canales & Zapater-A Spain 04.09.2018 12:02:33.86 1049.4404 ES-2082 – Zapa 10
321 Ken Darlington-C United Kingdom 04.09.2018 12:02:34.54 1049.3802 UK-4483 – Supreme Tip
322 3 Wise Men-B Ireland 04.09.2018 12:02:34.87 1049.351 IE-2274 – Blue 19
323 ZG Helios Yu Tao & Hubner & Gehrken-A China 04.09.2018 12:02:35.13 1049.328 DE-1846 – He 11
324 Kubacek Lubomir-A Czech Republic 04.09.2018 12:02:35.44 1049.3006 CZ-516 – Kubacek 3
325 Ahmet Cavdar-C Turkey 04.09.2018 12:02:35.44 1049.3006 TR-4140 – Ates
326 Team Schilling/Rycombel Germany 04.09.2018 12:02:35.79 1049.2696 DE-1491 – Asko
327 Emeralds & Diamonds Dynasty-B Northern Ireland 04.09.2018 12:02:36.43 1049.213 UK-4363 – Quartz Dynasty
328 Harald Below-A Germany 04.09.2018 12:02:37.20 1049.1448 DE-860 – Fourty Nene
329 Walter Straif-A Austria 04.09.2018 12:02:37.96 1049.0776 AT-25 – Alli
330 Natario, Filho e Miranda Portugal 04.09.2018 12:02:38.16 1049.0599 PT-3722 – Miranda 2
331 Team Magic-B Germany 04.09.2018 12:02:38.81 1049.0024 DE-1577 – Magic 4
332 H.+D. Koffler + Kossow-B Germany 04.09.2018 12:02:40.68 1048.837 DE-1079 – Jim Knopt
333 B.J. Suk Mellies Netherlands 04.09.2018 12:02:41.57 1048.7583 NL-2707 – Airwolf
334 Andreas Moeller-A Germany 04.09.2018 12:02:42.27 1048.6964 DE-587 – Carolin
335 EPW Eddy-Qian Gang-B Belgium 04.09.2018 12:02:42.50 1048.6761 BE-118 – EPW 4
336 Alexander Eider Germany 04.09.2018 12:02:42.69 1048.6593 DE-551 – Super Sonic 34
337 Rhoen Cruiser Germany 04.09.2018 12:02:42.76 1048.6531 DE-1193 – Concorde
338 Wienekamp, Hermann Germany 04.09.2018 12:02:43.13 1048.6204 DE-1818 – Sylt Hermann 3
339 Team Seebachsiedler Germany 04.09.2018 12:02:43.32 1048.6036 DE-1668 – Dagi
340 SG Moeller + Hammacher-B Germany 04.09.2018 12:02:44.25 1048.5214 DE-1264 – Mozart
341 Brockamp Racing Team-A Germany 04.09.2018 12:02:44.88 1048.4657 DE-633 – Linus
342 Rolf Huchthausen-B Germany 04.09.2018 12:02:44.89 1048.4648 DE-1213 – Rolf 4
343 Armstrong & Daniels-UK-B United Kingdom 04.09.2018 12:02:45.23 1048.4348 UK-4267 – Grant
344 Bernd Brunnet Germany 04.09.2018 12:02:45.86 1048.3791 DE-609 – GSG 9
345 Klaus & Christian Stretz Germany 04.09.2018 12:02:46.08 1048.3597 DE-1018 – Captain Max Morlok
346 Iking-Leifkes Kippenbrock-B Germany 04.09.2018 12:02:46.19 1048.35 DE-933 – Heti
347 D Todorov & Ilijan Van Der Zhek Bulgaria 04.09.2018 12:02:46.22 1048.3473 BG-318 – Blue Dart 041
348 Matusek Peter & Alena Slovakia (Slovak Republic) 04.09.2018 12:02:46.70 1048.3049 SK-4066 – Alenka
349 Valachovic Milan Slovakia (Slovak Republic) 04.09.2018 12:02:46.72 1048.3032 SK-4112 – Kristin
350 Cees van Gelder-A Netherlands 04.09.2018 12:02:47.50 1048.2343 NL-2775 – Aagje
351 Knol Pigeons Netherlands 04.09.2018 12:02:47.71 1048.2157 NL-3022 – Hendrik
352 Parade Superstars-A United Kingdom 04.09.2018 12:02:47.85 1048.2033 UK-4572 – Mark
353 Dietz Josef+Michael-A Germany 04.09.2018 12:02:48.70 1048.1283 DE-692 – Dietz 2
354 Ganus Family Loft-H United States 04.09.2018 12:02:49.02 1048.1 US-4823 – Dynamite
355 Roman Zlicar Czech Republic 04.09.2018 12:02:51.18 1047.9093 CZ-524 – Adonis
356 HokReijnen- Bolton-E Netherlands 04.09.2018 12:02:51.67 1047.8661 NL-2975 – Hok 14
357 Team Spirit-Sattler-Hueller-A Germany 04.09.2018 12:02:51.92 1047.844 DE-1278 – Sarah
358 Team Gouden Duif-Algarve-Linne Germany 04.09.2018 12:02:52.79 1047.7672 DE-1440 – Dorle 2
359 Team Schulz-A Germany 04.09.2018 12:02:53.78 1047.6798 DE-1660 – Mistral
360 Team Tilli 28 Germany 04.09.2018 12:02:54.58 1047.6093 DE-1689 – Deveron 2
361 Podyma Arek Maciek Poland 04.09.2018 12:02:55.55 1047.5237 PL-3492 – Mlody 3
362 3 Wise Men-B Ireland 04.09.2018 12:03:02.49 1046.9119 IE-2272 – Blue 63
363 F Dukker Netherlands 04.09.2018 12:03:03.60 1046.8141 NL-2893 – Dukker 1
364 HokReijnen- Bolton-J Netherlands 04.09.2018 12:03:13.09 1045.9788 NL-4909 HOK 28
365 Team Schmerzer-B Germany 04.09.2018 12:03:28.37 1044.6367 DE-1652 – Laura
366 Die Zwei-A Germany 04.09.2018 12:03:53.27 1042.4569 DE-659 – Muller 2
367 Ahmet Cavdar-B Turkey 04.09.2018 12:03:53.29 1042.4552 TR-4136 – Kamet
368 Team Gold Pigeons-A Germany 04.09.2018 12:03:57.89 1042.0535 DE-1425 – Gold 298
369 Dieter Siebert Germany 04.09.2018 12:03:59.71 1041.8947 DE-4894 Dieter 32
370 Team Cajuana Romania 04.09.2018 12:04:05.75 1041.3679 RO-3937 – Gelb 1
371 Ulisses Zacarias Terra-B Portugal 04.09.2018 12:04:13.29 1040.711 PT-3826 – Telémaco
372 Oskar Anderhub Switzerland 04.09.2018 12:04:15.83 1040.4899 CH-457 – Oskar 1
373 The Avengers-B United Kingdom 04.09.2018 12:04:44.76 1037.9782 UK-4713 – Smokey Joe
374 Team Didden Cipriani-B Belgium 04.09.2018 12:04:46.28 1037.8466 BE-276 – Gold and Silver Shadow
375 Team Gouden Duif-Algarve-Rohde Germany 04.09.2018 12:04:49.69 1037.5514 DE-1441 – Paul
376 Team Dressler-Luetje-Lopez Germany 04.09.2018 12:04:50.20 1037.5073 DE-900 – Sina 29
377 Newport PSP United Kingdom 04.09.2018 12:04:50.21 1037.5064 UK-4558 – Channock Connection 1
378 Jager + Sohn-A Germany 04.09.2018 12:04:50.44 1037.4865 DE-948 – Johannes 2
379 Simeon Monev-B Bulgaria 04.09.2018 12:04:50.74 1037.4606 BG-387 – SM 07
380 Antonio Rodrigues Portugal 04.09.2018 12:04:51.27 1037.4147 PT-3602 – Perre59
381 Klessens De Lepper-B Netherlands 04.09.2018 12:04:52.22 1037.3325 NL-2793 – Esrella
382 Team Cantu Renato-C Italy 04.09.2018 12:04:52.77 1037.285 IT-2631 – Pegaso
383 Tarasiuk Jerzy-A Poland 04.09.2018 12:04:52.78 1037.2841 PL-3525 – Diamond
384 Cozy Yokoyama-A Belgium 04.09.2018 12:04:52.98 1037.2668 BE-84 – Cozy 665
385 Team Deichkinder-A Germany 04.09.2018 12:04:53.69 1037.2054 DE-1394 – Kinder 2
386 Dimitar Todorov -A Bulgaria 04.09.2018 12:04:57.04 1036.9158 BG-330 – DT 46
387 Pipa Netherland-C Netherlands 04.09.2018 12:04:59.50 1036.7032 NL-3092 – Ted 2
388 Meyer & Gehrken-A Germany 04.09.2018 12:05:05.95 1036.1462 DE-1116 – Meyer 23
389 Lucking Loft Germany 04.09.2018 12:05:08.71 1035.9081 DE-1076 – Favah Grey
390 Ely Elite-B United Kingdom 04.09.2018 12:05:09.40 1035.8486 UK-4359 – Joanne
391 Team Tryppehna-B Germany 04.09.2018 12:05:11.30 1035.6847 DE-1695 – Rosi
392 Al Capones-B Netherlands 04.09.2018 12:05:24.13 1034.5796 NL-2866 – Capones 4
393 Wolfsberg Team Germany 04.09.2018 12:05:25.25 1034.4833 DE-1827 – Wolfsberg 3
394 Miroslav Vidhold Pigeons-C Slovakia (Slovak Republic) 04.09.2018 12:05:25.50 1034.4618 SK-4082 – Spider 331
395 Asas do Algarve Tapas Portugal 04.09.2018 12:05:26.52 1034.374 PT-3838 – Tapas 1
396 Rien van Oss en Zn-F Netherlands 04.09.2018 12:05:26.90 1034.3414 NL-3123 – Mannes
397 Peixoto e Peixoto Switzerland 04.09.2018 12:05:27.82 1034.2622 CH-481 – Ring Lose
398 The 3 Musketiers-B Netherlands 04.09.2018 12:05:27.95 1034.2511 NL-3296 – Golden 711
399 Vicont & Vicontesa-B Bulgaria 04.09.2018 12:05:28.43 1034.2098 BG-419 – Vicont 5
400 German Flying Devils Germany 04.09.2018 12:05:28.82 1034.1763 DE-803 – Jordi 642
401 Comb. Mantel-A Netherlands 04.09.2018 12:05:28.83 1034.1754 NL-2794 – Nesbo
402 Comb. Poelman Netherlands 04.09.2018 12:05:29.07 1034.1548 NL-2803 – Poelman 1
403 Helmut Schulz-B Germany 04.09.2018 12:05:29.98 1034.0765 DE-896 – Alfred 1
404 Ganus Family Loft-G United States 04.09.2018 12:05:30.78 1034.0078 US-4820 – Top Gun
405 Rien van Oss en Zn-D Netherlands 04.09.2018 12:05:30.92 1033.9957 NL-3116 – Terpstra
406 KHL Kamenar Czech Republic 04.09.2018 12:05:31.90 1033.9115 CZ-509 – Golden Catrina
407 Buiten Lust Netherlands 04.09.2018 12:05:31.91 1033.9107 NL-2757 – Miss Algarve
408 Team Schlenk W. / Schwarm C / Schleich-A Germany 04.09.2018 12:05:32.08 1033.8961 DE-1642 – Kid Rock
409 Rien van Oss en Zn-A Netherlands 04.09.2018 12:05:32.25 1033.8814 NL-3106 – Nikki
410 Beykoz Arena Posta Turkey 04.09.2018 12:05:33.40 1033.7826 TR-4141 – Yalcin
411 Ben de Keijzer-C Netherlands 04.09.2018 12:05:33.86 1033.7431 NL-2725 – Keijzer 7
412 Xaver Heinloth-B Germany 04.09.2018 12:05:36.12 1033.549 DE-1833 – Xaver 6
413 Ganus Family Loft-C United States 04.09.2018 12:05:38.33 1033.3593 US-4809 – Lily Pick
414 Hansen, Heinz Germany 04.09.2018 12:05:38.76 1033.3224 DE-858 – Sylt Hansen 3
415 Osko Chwarzynski-A Poland 04.09.2018 12:05:39.32 1033.2743 PL-3477 – Henka
416 Van de Viere Pieter Belgium 04.09.2018 12:05:40.51 1033.1722 BE-299 – Felix
417 Os Barros-A Portugal 04.09.2018 12:05:41.35 1033.1001 PT-3739 – Barros 1
418 Hullbride Racing Syndicate-G United Kingdom 04.09.2018 12:05:41.67 1033.0727 UK-4440 – F1 Lightning
419 Team Spirit-Sattler-Hueller-D Germany 04.09.2018 12:05:42.73 1032.9817 DE-1286 – Bruno
420 Team Schulz-B Germany 04.09.2018 12:05:44.08 1032.8659 DE-1665 – Saphira
421 Meeders Squadron-B Netherlands 04.09.2018 12:05:44.09 1032.8651 NL-3046 – Meeders F16
422 Dekker Brothers-B Netherlands 04.09.2018 12:05:45.09 1032.7793 NL-2816 – Knight on the horse
423 Ganus Family Loft-I United States 04.09.2018 12:05:45.29 1032.7622 US-4826 – Chee Tah
424 Team Pierrot-A Belgium 04.09.2018 12:05:52.77 1032.1212 BE-287 – Shalini
425 Norio Onodera-B Japan 04.09.2018 12:05:57.39 1031.7258 JP-2652 – Ono 655
426 Tandem Tabares & Oswaldo-C Spain 04.09.2018 12:05:59.08 1031.5812 ES-2039 – Teguise
427 Sjaak Buwalda-A Netherlands 04.09.2018 12:06:02.21 1031.3135 NL-3139 – Frysian Gostrider
428 Team Schulz-B Germany 04.09.2018 12:06:05.15 1031.0622 DE-1663 – Champion
429 Elite Team 2018-B Germany 04.09.2018 12:06:06.94 1030.9092 DE-720 – Track
430 Miroslaw Mazurek Poland 04.09.2018 12:06:20.13 1029.7836 PL-3474 – Agnieszka
431 Heribert Gertkaemper Germany 04.09.2018 12:06:32.94 1028.6928 DE-915 – Heribert 3
432 Fermannach Flyers-K Ireland 04.09.2018 12:06:36.23 1028.413 IE-2378 – Drew 8
433 Kurt Hartung-B Germany 04.09.2018 12:06:40.09 1028.0849 DE-1051 – Kurt 4
434 Team Reichstein-A Germany 04.09.2018 12:06:45.43 1027.6314 DE-1606 – Sanchen
435 Tappert Helmut Germany 04.09.2018 12:06:48.69 1027.3547 DE-1349 – Tappent 2
436 Kubacek Lubomir-B Czech Republic 04.09.2018 12:06:49.72 1027.2674 CZ-518 – Kubacek 5
437 Safet Duran-C Ireland 04.09.2018 12:06:50.23 1027.2241 IE-2516 – Safet 8
438 Patrick Pigeon Sport-B France 04.09.2018 12:06:51.07 1027.1528 FR-2189 – Oman
439 Andrew Mabin-B United Kingdom 04.09.2018 12:06:51.15 1027.1461 UK-4257 – Mabin 6
440 HokReijnen- Bolton-E Netherlands 04.09.2018 12:06:53.50 1026.9468 NL-2974 – Hok 13
441 The Four Gamblers United Kingdom 04.09.2018 12:06:54.08 1026.8976 UK-4721 – Gambler 2
442 Hubi Germany 04.09.2018 12:06:56.95 1026.6544 DE-928 – Hubi 1
443 William Donachie-A United Kingdom 04.09.2018 12:06:59.63 1026.4274 UK-4764 – One In A Million
444 Geiger + Kornelius-B Germany 04.09.2018 12:06:59.85 1026.4087 DE-792 – Herbert 628
445 Palomas Colors Spain 04.09.2018 12:07:01.33 1026.2834 ES-2043 – Palomas 3
446 Elst-B Netherlands 04.09.2018 12:07:07.10 1025.7951 NL-2890 – Topmo
447 Team Leliaert Netherlands 04.09.2018 12:07:07.61 1025.752 NL-2899 – Tapas 83
448 Harald Herbach & Ilse Germany 04.09.2018 12:07:11.69 1025.407 DE-865 – Bella Donna
449 Team Ijlst Netherlands 04.09.2018 12:07:14.25 1025.1907 NL-3201 – Tornado
450 Team Soehne Dr. Mildner Germany 04.09.2018 12:07:17.56 1024.9111 DE-1669 – Marius 357
451 TEAM PJ PIGEONS-A Slovakia (Slovak Republic) 04.09.2018 12:07:25.23 1024.2638 SK-4102 – Pj Allthea
452 Kurt Hartung-A Germany 04.09.2018 12:07:33.25 1023.5879 DE-1049 – Kurt 2
453 ZG Helios Yu Tao & Hubner & Gehrken-D China 04.09.2018 12:07:33.63 1023.5559 DE-1855 – Hub 37
454 Karlheinz & R. Schute Germany 04.09.2018 12:07:34.85 1023.4532 DE-973 – Leon
455 Pipa Netherland-D Netherlands 04.09.2018 12:07:35.24 1023.4204 NL-3095 – Hugo 2
456 Franz Kleinhans Germany 04.09.2018 12:07:35.95 1023.3606 DE-786 – Lisa
457 Elite Team 2018-A Germany 04.09.2018 12:07:36.23 1023.337 DE-716 – Obelix
458 Fermannach Flyers-A Ireland 04.09.2018 12:07:36.36 1023.3261 IE-2347 – Jamie 1
459 Wolfram Coesfeld-A Germany 04.09.2018 12:07:36.75 1023.2932 DE-1738 – Wickie
460 Fermannach Flyers-J Ireland 04.09.2018 12:07:36.77 1023.2915 IE-2375 – Drew 5
461 Karl-Heinz Koch-B Germany 04.09.2018 12:07:37.68 1023.215 DE-986 – Karl-Heinz 2
462 Team Schulz-A Germany 04.09.2018 12:07:38.57 1023.1401 DE-1662 – Nala
463 Team Twins-A Netherlands 04.09.2018 12:07:39.25 1023.0828 NL-3267 – Hol 343
464 Robert Fischer Germany 04.09.2018 12:07:39.44 1023.0669 DE-1201 – Hega
465 Meeders Squadron-A Netherlands 04.09.2018 12:07:39.45 1023.066 NL-3044 – Meeders Star
466 Moran & Bowden-A Ireland 04.09.2018 12:07:40.24 1022.9995 IE-2478 – Big Roberto
467 Van Boxmeer & Hoevenaars-B Netherlands 04.09.2018 12:07:41.63 1022.8826 NL-3310 – The Hope
468 Bussmann, Johannes Germany 04.09.2018 12:07:41.65 1022.8809 DE-645 – Sylt Sabine
469 Team Voll Gaz-B Germany 04.09.2018 12:07:42.76 1022.7876 DE-1713 – Farfan
470 Appaz Tozchala Bulgaria 04.09.2018 12:07:42.77 1022.7868 BG-315 – Nili
471 Rhondda Rockets-A United Kingdom 04.09.2018 12:07:42.80 1022.7842 UK-4624 – Springfield Express
472 Harbro Rowdies United Kingdom 04.09.2018 12:07:43.31 1022.7413 UK-4417 – Baz Boy 2
473 F Dukker Netherlands 04.09.2018 12:07:43.81 1022.6993 NL-2894 – Dukker 2
474 Let´s Be Ready-A United Kingdom 04.09.2018 12:07:45.24 1022.5791 UK-4506 – No Trap 3
475 Team Hartog United Kingdom 04.09.2018 12:07:46.17 1022.5009 UK-4681 – Jackie Boy
476 Sean Lennox Ireland 04.09.2018 12:07:47.80 1022.3639 IE-2524 – Challenger
477 Leopolel Hofmann Austria 04.09.2018 12:07:50.61 1022.1279 AT-17 – 736
478 Iking-Leifkes Kippenbrock-A Germany 04.09.2018 12:07:52.83 1021.9415 DE-936 – Ludger
479 Team Stuckenbusch-A Germany 04.09.2018 12:07:53.66 1021.8718 DE-1683 – Rolben
480 Gerry Daly-Goblet 3 Ireland 04.09.2018 12:07:56.53 1021.631 IE-2386 – O Maras Girl
481 Simeon Monev-A Bulgaria 04.09.2018 12:07:57.26 1021.5697 BG-384 – SM 06
482 Sothern Flyers-B United Kingdom 04.09.2018 12:07:57.83 1021.5219 UK-4656 – Carnir
483 GoonSquad-A Belgium 04.09.2018 12:07:58.22 1021.4892 BE-143 – Vasco 2
484 Mendez & Gallo Loft-B United States 04.09.2018 12:07:59.01 1021.4229 US-4893 – Amelia Rope Choco
485 Alp Race Team-A Switzerland 04.09.2018 12:08:01.74 1021.194 CH-433 – SKY 87
486 Familie Joekel-C Germany 04.09.2018 12:08:02.87 1021.0993 DE-743 – Abby
487 Team Keizer Netherlands 04.09.2018 12:08:05.18 1020.9057 NL-3211 – Cute Amy
488 Ely Elite-B United Kingdom 04.09.2018 12:08:05.50 1020.8789 UK-4357 – Willy Wanka
489 Z+R Racing Team Emst Germany 04.09.2018 12:08:05.51 1020.8781 DE-1085 – Josefine
490 Fermannach Flyers-I Ireland 04.09.2018 12:08:06.91 1020.7608 IE-2372 – Drew 2
491 Denis Culic Costa Rica 04.09.2018 12:08:06.92 1020.76 HR-2225 – Dubrovnik-Best
492 SG Moeller + Hammacher-A Germany 04.09.2018 12:08:08.77 1020.605 DE-1263 – Artenis
493 APC Loft-B United States 04.09.2018 12:08:08.96 1020.5891 US-4783 – APC 4
494 Racing Pigeons & Friends-B Germany 04.09.2018 12:08:09.57 1020.5381 DE-1153 – Alex
495 Oscar Pacheco Portugal 04.09.2018 12:08:10.42 1020.4669 PT-3750 – OSCAR 3
496 Dian & Rosi Fotevi Bulgaria 04.09.2018 12:08:12.48 1020.2945 BG-319 – DRD07
497 Geiger + Kornelius-A Germany 04.09.2018 12:08:14.83 1020.0979 DE-789 – Herbert 627
498 Welkom Uden Team -C Netherlands 04.09.2018 12:08:19.24 1019.7291 NL-3365 – Mirella
499 Karl-Heinz + Timo Wagner-A Germany 04.09.2018 12:08:26.62 1019.1126 DE-978 – Silvergirl
500 Zandverstuiving-C Netherlands 04.09.2018 12:08:43.60 1017.6969 NL-3379 – Marisja

Bir Cevap Yazın

This site uses Akismet to reduce spam. Learn how your comment data is processed.

%d blogcu bunu beğendi: